Regional Weather Roundup
Issued by NWS

Home | Current Version | Previous Version | Graphics & Text | Print | Product List | Glossary On
Versions: 1 2 3 4 5 6 7 8 9 10 11 12 13 14 15 16 17 18 19 20 21 22 23 24 25 26 27 28 29 30 31 32 33 34 35 36 37 38 39 40 41 42 43 44 45 46 47 48 49 50
413
ASUS43 KDMX 291203
RWRIA

WEATHER ROUNDUP FOR IOWA
NATIONAL WEATHER SERVICE DES MOINES IA
700 AM CDT FRI JUL 29 2016

NOTE: "FAIR" INDICATES FEW OR NO CLOUDS BELOW 12,000 FEET WITH NO
SIGNIFICANT WEATHER AND/OR OBSTRUCTIONS TO VISIBILITY.

* - THESE STATIONS ARE NOT NWS STATIONS...THUS NOT UNDER NWS
QUALITY CONTROL.  THEY ALSO DO NOT REPORT WEATHER SUCH
AS PRECIPITATION OR FOG.

IAZ001>003-012>014-020>022-031>034-043>046-291300-
   NORTHWEST IOWA

CITY           SKY/WX    TMP DP  RH WIND       PRES   REMARKS
CARROLL *      CLEAR     61  61 100 NW6       30.03R
CHEROKEE *     PTCLDY    60  60 100 N5        30.05R
DENISON *      CLEAR     59  59 100 CALM      30.03R FOG
LE MARS *      MOCLDY    59  59 100 CALM      30.07R
SHELDON *      CLOUDY    55  55 100 CALM      30.05R
SIOUX CITY     CLEAR     63  59  87 N5        30.05R
6HR MIN TEMP:  62; 6HR MAX TEMP:  69;

SPENCER        CLEAR     60  57  89 N7        30.05R
6HR MIN TEMP:  58; 6HR MAX TEMP:  63;

STORM LAKE *   PTCLDY    61  61 100 N7        30.05R
$$

IAZ055>058-069>071-079>083-090>094-291300-
   SOUTHWEST IOWA

CITY           SKY/WX    TMP DP  RH WIND       PRES   REMARKS
ATLANTIC *     CLEAR     63  61  94 N7        30.02R
CLARINDA *       N/A     66  64  94 MISG      30.04R
COUNCIL BLFS * CLOUDY    64  64 100 N7        30.02S
CRESTON *      PTCLDY    64  63  94 N3        30.03R
HARLAN  *      CLEAR     63  63 100 N5        30.06R
LAMONI         CLOUDY    64  63  96 N5        30.00R
6HR MIN TEMP:  63; 6HR MAX TEMP:  67;

RED OAK *      CLOUDY    64  64 100 NE5       30.02R
SHENANDOAH *   PTCLDY    66  66 100 CALM      30.04R
$$

IAZ047>049-059>061-072>074-084-291300-
   CENTRAL IOWA

CITY           SKY/WX    TMP DP  RH WIND       PRES   REMARKS
AMES           CLOUDY    65  63  93 N8        29.98R
6HR MIN TEMP:  64; 6HR MAX TEMP:  66;

ANKENY *         N/A    N/A N/A N/A MISG        N/A
BOONE *        CLOUDY    63  63 100 N8        29.99R
CHARITON *       N/A    N/A N/A N/A MISG        N/A
DES MOINES     CLOUDY    66  61  84 N6        29.98R
6HR MIN TEMP:  65; 6HR MAX TEMP:  70;

GRINNELL*      CLOUDY    65  63  94 NW3       29.97R
KNOXVILLE *    CLOUDY    63  61  94 NW7       29.96R
MARSHALLTOWN   CLOUDY    65  64  97 N9        29.96R
6HR MIN TEMP:  64; 6HR MAX TEMP:  65;

NEWTON *       CLOUDY    64  64 100 NW5       29.97R
PELLA *        CLOUDY    62  61  97 NW3       29.98R
PERRY *          N/A     61  61  99 W5        30.01R
$$

IAZ004>006-015-016-023>025-035-036-291300-
   NORTH CENTRAL IOWA

CITY           SKY/WX    TMP DP  RH WIND       PRES   REMARKS
ALGONA *       CLOUDY    64  63  94 N9        30.03R
ESTHERVILLE    PTCLDY    60  59  96 N9        30.04R
6HR MIN TEMP:  59; 6HR MAX TEMP:  64;

FORT DODGE *   CLOUDY    63  61  94 N7        30.02R
MASON CITY       N/A     62  61  96 N8        30.02R FOG
6HR MIN TEMP:  62; 6HR MAX TEMP:  64;

FOREST CITY *  DRIZZLE   61  61 100 N8        30.02R
IOWA FALLS *   CLOUDY    65  62  91 N9        29.99S
$$

IAZ007>011-017>019-026>030-037>042-050>054-066-291300-
   NORTHEAST IOWA

CITY           SKY/WX    TMP DP  RH WIND       PRES   REMARKS
CEDAR RAPIDS   CLOUDY    66  66 100 NW6       29.93R FOG
6HR MIN TEMP:  66; 6HR MAX TEMP:  68;

CHARLES CITY * CLOUDY    63  63 100 NE7       30.00R FOG
CLINTON *      CLOUDY    68  68 100 NE10      29.93S FOG
DECORAH *      DRIZZLE   63  63 100 N5        29.98S
DUBUQUE        CLOUDY    66  62  87 NE13      29.95S
6HR MIN TEMP:  66; 6HR MAX TEMP:  70;

MONTICELLO *   CLOUDY    68  64  88 NE9       29.94R
OELWEIN *      CLOUDY    64  63  94 NE14      29.97R
WATERLOO       CLOUDY    65  64  97 N7        29.95R FOG
6HR MIN TEMP:  65; 6HR MAX TEMP:  65;

$$

IAZ064-065-067-068-078-291300-
   EAST CENTRAL IOWA

CITY           SKY/WX    TMP DP  RH WIND       PRES   REMARKS
DAVENPORT      CLOUDY    69  68  96 NE6       29.92S FOG
6HR MIN TEMP:  66; 6HR MAX TEMP:  69;

IOWA CITY      CLOUDY    68  65  90 NW7       29.94R
6HR MIN TEMP:  67; 6HR MAX TEMP:  70;

MT. PLEASANT * PTCLDY    67  67 100 CALM      29.95R
MUSCATINE *    CLOUDY    68  66  94 W3        29.93R
QUAD CITIES    CLOUDY    72  68  87 CALM      29.91R
6HR MIN TEMP:  70; 6HR MAX TEMP:  72;

$$

IAZ062-063-075>077-085>089-095>099-291300-
   SOUTHEAST IOWA

CITY           SKY/WX    TMP DP  RH WIND       PRES   REMARKS
BURLINGTON     FOG       65  65 100 NW3       29.94R VSB 1/4
6HR MIN TEMP:  65; 6HR MAX TEMP:  67;

FAIRFIELD *    CLOUDY    64  63  94 W5        29.95R
KEOKUK *       FOG       66  64  94 N5        29.94R VSB<1/4
CENTERVILLE *    N/A     64  63  94 CALM      29.99R
OTTUMWA        CLOUDY    64  62  93 NW6       29.95R
6HR MIN TEMP:  62; 6HR MAX TEMP:  65;

WASHINGTON *   CLOUDY    66  64  94 NW5       29.95R
$$

ABBREVIATIONS USED IN REMARKS
   TC - TEMPERATURES IN CELSIUS
  WCI - WIND CHILL INDEX
   HX - HEAT INDEX
  VSB - VISIBILITY
$$





USA.gov is the U.S. government's official web portal to all federal, state and local government web resources and services.